IT9NKT-WX Weather Reports


time (UTC)temp
F
wind
direction
speed
knots
gust
knots
rain 1hr
in
rain 24hr
in
rain mn
in
humidity
%
barometer
mb
20260508015004 62 174 0.0 0.9 0.00 0.00 0.00 87 1010.6
20260508014504 62 197 0.0 0.9 0.00 0.00 0.00 86 1010.7
20260508014004 62 194 0.0 0.9 0.00 0.00 0.00 86 1010.7
20260508013714 63 194 0.0 0.9 0.00 0.00 0.00 86 1010.5
20260508013003 63 148 0.0 1.7 0.00 0.00 0.00 86 1010.4
20260508012504 63 137 0.0 1.7 0.00 0.00 0.00 86 1010.6
20260508012003 63 119 0.0 0.9 0.00 0.00 0.00 85 1010.6
20260508011503 63 22 0.0 2.6 0.00 0.00 0.00 84 1010.6
20260508011003 63 351 0.0 2.6 0.00 0.00 0.00 83 1010.6
20260508010503 63 1 0.9 3.5 0.00 0.00 0.00 83 1010.7
20260508010004 63 11 0.9 3.5 0.00 0.00 0.00 83 1010.8
20260508005713 63 13 0.9 3.5 0.00 0.00 0.00 83 1010.9
20260508005004 63 348 0.0 1.7 0.00 0.00 0.00 83 1011.0
20260508004504 63 188 0.0 0.9 0.00 0.00 0.00 83 1011.2
20260508004003 63 186 0.0 0.9 0.00 0.00 0.00 82 1011.3
20260508003504 64 192 0.0 0.9 0.00 0.00 0.00 82 1011.3
20260508003003 64 239 0.9 5.2 0.00 0.00 0.00 82 1011.1
20260508002503 63 262 0.9 5.2 0.00 0.00 0.00 83 1011.1
20260508002003 63 311 0.9 2.6 0.00 0.00 0.00 83 1011.5
20260508001503 63 336 0.9 2.6 0.00 0.00 0.00 83 1011.5
20260508001003 63 316 0.0 1.7 0.00 0.00 0.00 83 1011.7
20260508000504 63 133 0.0 0.9 0.00 0.00 0.00 82 1011.9
20260508000003 63 167 0.0 0.0 0.00 0.00 0.00 82 1012.1
20260507235504 63 177 0.0 0.9 0.00 0.00 0.00 82 1012.0
20260507235003 64 172 0.0 1.7 0.00 0.00 0.00 82 1012.0
20260507234504 64 163 0.0 1.7 0.00 0.00 0.00 82 1012.2
20260507234004 64 160 0.0 0.9 0.00 0.00 0.00 82 1012.1
20260507233503 64 176 0.0 0.9 0.00 0.00 0.00 82 1012.4
20260507233004 64 181 0.0 0.9 0.00 0.00 0.00 82 1012.1
20260507232504 64 209 0.0 2.6 0.00 0.00 0.00 83 1012.2
20260507232214 64 339 0.0 2.6 0.00 0.00 0.00 83 1012.2
20260507231717 64 6 0.0 2.6 0.00 0.00 0.00 83 1012.2
20260507230504 64 280 0.0 0.9 0.00 0.00 0.00 84 1012.6
20260507230003 64 208 0.0 0.9 0.00 0.00 0.00 84 1012.9
20260507225503 64 299 0.0 2.6 0.00 0.00 0.00 85 1013.4
20260507225213 64 322 0.0 2.6 0.00 0.00 0.00 85 1013.0
20260507224716 64 292 0.0 2.6 0.00 0.00 0.00 85 1012.8
20260507224004 64 0 0.0 0.0 0.00 0.00 0.00 85 1012.9
20260507223503 64 200 0.0 0.9 0.00 0.00 0.00 84 1013.2
20260507223003 64 198 0.9 0.9 0.00 0.00 0.00 84 1013.0
20260507222503 64 197 0.9 1.7 0.00 0.00 0.00 84 1012.9
20260507222004 64 202 0.0 1.7 0.00 0.00 0.00 84 1012.6
20260507221503 64 290 0.0 1.7 0.00 0.00 0.00 84 1012.6
20260507221217 64 2 0.9 6.1 0.00 0.00 0.00 84 1012.4
20260507220714 64 18 0.9 6.1 0.00 0.00 0.00 83 1012.3
20260507220007 64 42 0.9 1.7 0.00 0.00 0.00 83 1011.7
20260507215503 64 24 0.9 5.2 0.00 0.00 0.00 83 1012.0
20260507215213 64 20 0.9 5.2 0.00 0.00 0.00 83 1012.1
20260507214504 64 47 0.9 3.5 0.00 0.00 0.00 83 1012.1
20260507214003 64 58 0.9 3.5 0.00 0.00 0.00 83 1011.9
20260507213717 64 58 0.9 1.7 0.00 0.00 0.00 83 1012.0
20260507213003 64 22 0.9 6.1 0.00 0.00 0.00 83 1012.1
20260507212713 64 22 0.9 6.1 0.00 0.00 0.00 83 1012.0
20260507212003 64 26 0.9 2.6 0.00 0.00 0.00 83 1011.9
20260507211503 64 49 0.9 1.7 0.00 0.00 0.00 83 1011.8
20260507211004 64 39 0.9 2.6 0.00 0.00 0.00 83 1011.8
20260507210504 64 23 1.7 3.5 0.00 0.00 0.00 83 1011.8
20260507210213 64 40 0.9 3.5 0.00 0.00 0.00 83 1012.0
20260507205503 64 58 1.7 6.1 0.00 0.00 0.00 83 1011.9
20260507205003 64 44 1.7 6.1 0.00 0.00 0.00 83 1011.6
20260507204505 64 36 1.7 5.2 0.00 0.00 0.00 82 1011.7
20260507204003 64 39 1.7 7.0 0.00 0.00 0.00 82 1011.9
20260507203504 64 51 1.7 7.0 0.00 0.00 0.00 82 1012.2
20260507203004 64 54 0.9 6.1 0.00 0.00 0.00 82 1012.1
20260507202503 65 40 0.9 2.6 0.00 0.00 0.00 82 1012.4
20260507202004 65 63 1.7 9.6 0.00 0.00 0.00 82 1012.5
20260507201715 64 75 1.7 9.6 0.00 0.00 0.00 82 1012.5
20260507201004 65 74 1.7 7.0 0.00 0.00 0.00 82 1012.4
20260507200503 65 85 1.7 6.1 0.00 0.00 0.00 82 1012.4
20260507200004 65 86 1.7 6.1 0.00 0.00 0.00 82 1012.2
20260507195504 65 67 1.7 7.8 0.00 0.00 0.00 81 1012.0
20260507195215 65 66 1.7 7.8 0.00 0.00 0.00 81 1011.7
20260507194504 65 40 1.7 5.2 0.00 0.00 0.00 81 1011.5
20260507194003 65 33 1.7 8.7 0.00 0.00 0.00 81 1011.4
20260507193503 65 53 1.7 8.7 0.00 0.00 0.00 81 1011.5
20260507193004 65 62 1.7 7.0 0.00 0.00 0.00 81 1011.7
20260507192714 65 56 1.7 4.3 0.00 0.00 0.00 81 1011.6
20260507192004 65 43 1.7 11.3 0.00 0.00 0.00 81 1011.3
20260507191503 65 47 0.9 3.5 0.00 0.00 0.00 81 1011.4
20260507191003 65 45 0.9 6.1 0.00 0.00 0.00 81 1011.3
20260507190504 65 69 1.7 6.1 0.00 0.00 0.00 81 1011.5
20260507190005 65 74 1.7 5.2 0.00 0.00 0.00 81 1011.5
20260507185717 65 79 1.7 8.7 0.00 0.00 0.00 81 1011.5
20260507185003 65 76 2.6 8.7 0.00 0.00 0.00 81 1011.3
20260507184713 65 55 2.6 5.2 0.00 0.00 0.00 81 1011.5
20260507184216 65 42 2.6 11.3 0.00 0.00 0.00 81 1011.5
20260507183504 65 50 2.6 9.6 0.00 0.00 0.00 81 1011.6
20260507183005 65 48 2.6 13.0 0.00 0.00 0.00 81 1011.4
20260507182504 65 55 3.5 13.0 0.00 0.00 0.00 81 1011.1
20260507182213 65 40 3.5 13.0 0.00 0.00 0.00 81 1011.2
20260507181504 65 49 2.6 8.7 0.00 0.00 0.00 81 1011.0
20260507181003 65 52 2.6 8.7 0.00 0.00 0.00 81 1010.8
20260507180504 65 51 2.6 7.8 0.00 0.00 0.00 81 1011.1
20260507180003 65 53 2.6 6.1 0.00 0.00 0.00 81 1011.2
20260507175504 65 46 3.5 9.6 0.00 0.00 0.00 81 1011.1
20260507175216 65 50 3.5 9.6 0.00 0.00 0.00 81 1011.3
20260507174504 65 58 3.5 12.2 0.00 0.00 0.00 80 1011.0
20260507174217 65 59 3.5 12.2 0.00 0.00 0.00 80 1010.8
20260507173504 65 64 3.5 13.0 0.00 0.00 0.00 80 1010.7
20260507173004 65 53 3.5 13.0 0.00 0.00 0.00 80 1010.5
20260507172503 65 51 3.5 8.7 0.00 0.00 0.00 80 1010.7
20260507172003 65 56 2.6 6.1 0.00 0.00 0.00 80 1010.9
20260507171504 65 42 3.5 13.0 0.00 0.00 0.00 80 1011.1
20260507171214 65 49 3.5 13.0 0.00 0.00 0.00 81 1010.9
20260507170503 65 59 3.5 13.9 0.00 0.00 0.00 80 1011.0
20260507170003 65 53 3.5 13.9 0.00 0.00 0.00 80 1011.1
20260507165503 65 56 3.5 11.3 0.00 0.00 0.00 80 1010.9
20260507165004 65 47 3.5 11.3 0.00 0.00 0.00 80 1011.4
20260507164714 65 43 3.5 11.3 0.00 0.00 0.00 80 1011.6
20260507164004 65 38 2.6 11.3 0.00 0.00 0.00 80 1011.4
20260507163503 65 39 3.5 11.3 0.00 0.00 0.00 80 1011.5
20260507163003 65 52 3.5 9.6 0.00 0.00 0.00 80 1011.2
20260507162716 65 52 3.5 13.9 0.00 0.00 0.00 79 1011.3
20260507162004 65 48 4.3 13.9 0.00 0.00 0.00 79 1011.0
20260507161717 65 53 4.3 18.2 0.00 0.00 0.00 80 1010.8
20260507161003 65 53 4.3 18.2 0.00 0.00 0.00 79 1011.1
20260507160503 65 64 4.3 15.6 0.00 0.00 0.00 79 1010.7
20260507160004 65 77 3.5 13.9 0.00 0.00 0.00 79 1010.9
20260507155504 65 79 4.3 13.9 0.00 0.00 0.00 80 1011.2
20260507155217 65 78 4.3 13.9 0.00 0.00 0.00 79 1011.2
20260507154503 65 48 4.3 9.6 0.00 0.00 0.00 79 1011.0
20260507154005 65 52 4.3 15.6 0.00 0.00 0.00 79 1011.1
20260507153504 65 62 4.3 15.6 0.00 0.00 0.00 79 1011.2
20260507153003 65 68 4.3 13.9 0.00 0.00 0.00 78 1011.2
20260507152717 65 65 3.5 8.7 0.00 0.00 0.00 78 1011.5
20260507152215 65 50 3.5 13.9 0.00 0.00 0.00 78 1011.4
20260507151504 65 56 3.5 12.2 0.00 0.00 0.00 78 1011.4
20260507151216 65 52 4.3 8.7 0.00 0.00 0.00 78 1011.5
20260507150504 65 48 4.3 13.9 0.00 0.00 0.00 78 1011.3
20260507150003 65 44 5.2 18.2 0.00 0.00 0.00 78 1011.4
20260507145504 65 46 4.3 18.2 0.00 0.00 0.00 78 1011.4
20260507145004 65 62 3.5 12.2 0.00 0.00 0.00 77 1011.3
20260507144503 65 44 3.5 11.3 0.00 0.00 0.00 78 1011.1
20260507144003 65 41 4.3 18.2 0.00 0.00 0.00 77 1011.3
20260507143503 65 47 4.3 18.2 0.00 0.00 0.00 77 1011.0
20260507143003 65 53 3.5 9.6 0.00 0.00 0.00 77 1011.2
20260507142503 65 61 4.3 15.6 0.00 0.00 0.00 78 1011.3
20260507142003 65 61 3.5 15.6 0.00 0.00 0.00 77 1011.5
20260507141504 65 52 3.5 11.3 0.00 0.00 0.00 77 1011.8
20260507141003 65 58 5.2 18.2 0.00 0.00 0.00 77 1011.5
20260507140503 65 65 4.3 18.2 0.00 0.00 0.00 77 1011.5
20260507140003 66 51 5.2 20.9 0.00 0.00 0.00 76 1011.6
20260507135715 65 51 6.1 20.9 0.00 0.00 0.00 76 1011.5
20260507135003 66 44 5.2 13.9 0.00 0.00 0.00 76 1011.6
20260507134503 66 34 6.1 18.2 0.00 0.00 0.00 76 1011.9
20260507134214 66 39 6.1 18.2 0.00 0.00 0.00 75 1011.9
20260507133503 66 44 6.1 14.8 0.00 0.00 0.00 75 1011.9
20260507133004 67 37 6.1 23.5 0.00 0.00 0.00 74 1011.9
20260507132504 67 34 7.0 23.5 0.00 0.00 0.00 73 1012.0
20260507132216 66 33 7.8 23.5 0.00 0.00 0.00 73 1011.8
20260507131504 67 51 6.1 16.5 0.00 0.00 0.00 72 1011.8
20260507131004 67 48 5.2 15.6 0.00 0.00 0.00 73 1011.8
20260507130503 68 45 5.2 14.8 0.00 0.00 0.00 71 1012.1
20260507130004 68 59 5.2 13.9 0.00 0.00 0.00 70 1012.1
20260507125504 68 54 6.1 20.9 0.00 0.00 0.00 71 1012.2
20260507125214 68 53 6.1 20.9 0.00 0.00 0.00 72 1012.2
20260507124503 67 57 7.0 20.0 0.00 0.00 0.00 72 1012.6
20260507124004 67 51 7.0 25.2 0.00 0.00 0.00 72 1012.4
20260507123718 67 58 7.0 25.2 0.00 0.00 0.00 71 1012.5
20260507123004 67 51 6.1 18.2 0.00 0.00 0.00 71 1012.4
20260507122714 68 48 6.1 18.2 0.00 0.00 0.00 70 1012.6
20260507122004 68 60 5.2 16.5 0.00 0.00 0.00 69 1012.4
20260507121504 68 55 5.2 13.0 0.00 0.00 0.00 69 1012.6
20260507121004 68 57 6.1 16.5 0.00 0.00 0.00 70 1012.6
20260507120504 68 56 6.1 16.5 0.00 0.00 0.00 69 1012.5
20260507120214 68 53 6.1 16.5 0.00 0.00 0.00 69 1012.7
20260507115504 67 49 7.0 21.7 0.00 0.00 0.00 70 1012.6
20260507115004 68 61 6.1 16.5 0.00 0.00 0.00 68 1012.5
20260507114503 68 62 7.0 13.0 0.00 0.00 0.00 70 1012.6
20260507114004 68 61 6.1 21.7 0.00 0.00 0.00 67 1012.7
20260507113503 68 45 7.8 21.7 0.00 0.00 0.00 70 1012.3
20260507113004 68 44 7.0 16.5 0.00 0.00 0.00 68 1012.5
20260507112503 69 44 6.1 21.7 0.00 0.00 0.00 67 1012.5
20260507112217 68 48 7.0 21.7 0.00 0.00 0.00 68 1012.7
20260507111504 68 53 6.1 13.0 0.00 0.00 0.00 69 1012.7
20260507111003 68 59 6.1 18.2 0.00 0.00 0.00 68 1013.2
20260507110716 68 63 6.1 18.2 0.00 0.00 0.00 67 1013.0
20260507110003 68 45 6.1 26.1 0.00 0.00 0.00 68 1013.3
20260507105503 68 49 6.1 26.1 0.00 0.00 0.00 68 1013.2
20260507105003 68 62 6.1 18.2 0.00 0.00 0.00 68 1013.2
20260507104504 68 55 7.0 16.5 0.00 0.00 0.00 68 1013.3
20260507104004 68 58 7.0 23.5 0.00 0.00 0.00 65 1013.6
20260507103504 69 62 6.1 23.5 0.00 0.00 0.00 64 1013.5
20260507103004 69 64 6.1 18.2 0.00 0.00 0.00 65 1013.8
20260507102504 68 65 6.1 20.0 0.00 0.00 0.00 68 1013.7
20260507102003 68 56 6.1 20.0 0.00 0.00 0.00 65 1013.5
20260507101504 69 53 5.2 14.8 0.00 0.00 0.00 66 1013.6
20260507101004 69 57 5.2 20.9 0.00 0.00 0.00 65 1013.4
20260507100503 68 67 6.1 20.9 0.00 0.00 0.00 66 1013.6
20260507100215 68 63 6.1 16.5 0.00 0.00 0.00 65 1013.4
20260507095718 69 57 6.1 18.2 0.00 0.00 0.00 62 1013.8
20260507095216 69 53 6.1 18.2 0.00 0.00 0.00 61 1013.7
20260507094504 69 50 6.1 21.7 0.00 0.00 0.00 61 1013.7
20260507094004 68 55 7.0 21.7 0.00 0.00 0.00 63 1013.6
20260507093503 69 60 6.1 15.6 0.00 0.00 0.00 63 1013.8
20260507093003 69 59 5.2 16.5 0.00 0.00 0.00 62 1014.0
20260507092503 68 46 6.1 16.5 0.00 0.00 0.00 62 1013.7
20260507092003 68 38 6.1 13.0 0.00 0.00 0.00 64 1013.6
20260507091717 68 45 6.1 18.2 0.00 0.00 0.00 65 1013.6
20260507091214 67 50 6.1 18.2 0.00 0.00 0.00 66 1013.8
20260507090718 67 43 6.1 26.1 0.00 0.00 0.00 67 1014.0
20260507090005 67 48 6.1 26.1 0.00 0.00 0.00 67 1013.7
20260507085504 67 55 6.1 14.8 0.00 0.00 0.00 68 1013.7
20260507085003 67 55 6.1 11.3 0.00 0.00 0.00 69 1013.6
20260507084504 67 59 6.1 16.5 0.00 0.00 0.00 70 1013.7
20260507084218 67 58 6.1 16.5 0.00 0.00 0.00 70 1013.8
20260507083503 67 63 6.1 18.2 0.00 0.00 0.00 70 1013.9
20260507083004 67 49 6.1 18.2 0.00 0.00 0.00 70 1013.7
20260507082503 67 42 5.2 16.5 0.00 0.00 0.00 69 1013.4
20260507082003 67 49 5.2 23.5 0.00 0.00 0.00 67 1013.5
20260507081717 67 51 6.1 23.5 0.00 0.00 0.00 69 1013.4
20260507081004 67 51 5.2 16.5 0.00 0.00 0.00 70 1013.3
20260507080503 67 50 5.2 13.9 0.00 0.00 0.00 69 1013.6
20260507080216 67 52 4.3 13.0 0.00 0.00 0.00 68 1013.3
20260507075504 67 67 4.3 19.1 0.00 0.00 0.00 70 1013.8
20260507075004 67 56 4.3 16.5 0.00 0.00 0.00 71 1013.7
20260507074715 67 67 4.3 16.5 0.00 0.00 0.00 72 1013.6
20260507074003 67 74 6.1 16.5 0.00 0.00 0.00 72 1013.7
20260507073503 66 60 5.2 14.8 0.00 0.00 0.00 72 1013.9
20260507073004 66 38 5.2 14.8 0.00 0.00 0.00 73 1013.8
20260507072503 67 44 4.3 14.8 0.00 0.00 0.00 71 1013.9
20260507072004 66 69 5.2 20.0 0.00 0.00 0.00 73 1013.7
20260507071504 66 76 5.2 20.0 0.00 0.00 0.00 74 1013.9
20260507071004 66 74 5.2 15.6 0.00 0.00 0.00 72 1013.9
20260507070714 66 65 4.3 7.8 0.00 0.00 0.00 73 1013.9
20260507070217 66 48 4.3 16.5 0.00 0.00 0.00 73 1014.2
20260507065503 66 47 3.5 14.8 0.00 0.00 0.00 75 1013.9
20260507065213 66 50 3.5 14.8 0.00 0.00 0.00 74 1014.3
20260507064716 65 45 4.3 14.8 0.00 0.00 0.00 76 1014.1
20260507064213 65 63 4.3 8.7 0.00 0.00 0.00 79 1014.3
20260507063503 65 59 5.2 16.5 0.00 0.00 0.00 80 1014.2
20260507063003 64 60 5.2 15.6 0.00 0.00 0.00 82 1014.1
20260507062504 64 72 4.3 14.8 0.00 0.00 0.00 82 1014.2
20260507062003 64 73 4.3 12.2 0.00 0.00 0.00 83 1014.3
20260507061503 64 69 3.5 13.9 0.00 0.00 0.00 84 1014.1
20260507061217 64 71 3.5 13.9 0.00 0.00 0.00 84 1014.1
20260507060714 64 66 3.5 7.8 0.00 0.00 0.00 85 1014.1
20260507060004 63 69 4.3 15.6 0.00 0.00 0.00 86 1014.3
20260507055503 63 67 4.3 15.6 0.00 0.00 0.00 85 1014.4
20260507055213 63 69 3.5 13.9 0.00 0.00 0.00 85 1014.4
20260507054716 63 71 3.5 12.2 0.00 0.00 0.00 86 1014.4
20260507054004 63 82 3.5 12.2 0.00 0.00 0.00 85 1014.3
20260507053503 63 78 2.6 9.6 0.00 0.00 0.00 84 1014.2
20260507053004 63 67 2.6 9.6 0.00 0.00 0.00 84 1014.4
20260507052503 63 51 3.5 9.6 0.00 0.00 0.00 84 1014.2
20260507052004 63 45 3.5 9.6 0.00 0.00 0.00 83 1014.1
20260507051503 63 61 3.5 6.1 0.00 0.00 0.00 83 1014.1
20260507051003 62 61 3.5 11.3 0.00 0.00 0.00 83 1014.1
20260507050503 63 53 3.5 11.3 0.00 0.00 0.00 85 1014.2
20260507050003 62 58 2.6 8.7 0.00 0.00 0.00 84 1014.3
20260507045503 62 58 2.6 8.7 0.00 0.00 0.00 84 1014.1
20260507045003 62 45 2.6 6.1 0.00 0.00 0.00 84 1013.8
20260507044504 62 55 3.5 11.3 0.00 0.00 0.00 84 1014.0
20260507044004 62 74 2.6 11.3 0.00 0.00 0.00 84 1014.1
20260507043503 62 69 2.6 7.8 0.00 0.00 0.00 84 1014.1
20260507043004 62 59 1.7 6.1 0.00 0.00 0.00 84 1014.0
20260507042503 62 67 1.7 7.8 0.00 0.00 0.00 84 1014.1
20260507042003 62 76 1.7 7.8 0.00 0.00 0.00 83 1014.1
20260507041503 62 70 1.7 6.1 0.00 0.00 0.00 82 1013.9
20260507041003 62 56 0.9 3.5 0.00 0.00 0.00 80 1014.0
20260507040503 62 57 1.7 7.0 0.00 0.00 0.00 78 1014.0
20260507040003 63 62 0.9 7.0 0.00 0.00 0.00 77 1014.0
20260507035504 62 56 0.9 6.1 0.00 0.00 0.00 79 1014.2
20260507035004 63 43 0.9 5.2 0.00 0.00 0.00 78 1014.2
20260507034718 63 39 0.9 5.2 0.00 0.00 0.00 77 1014.5
20260507034003 63 43 0.9 3.5 0.00 0.00 0.00 74 1014.4
20260507033503 62 67 0.9 3.5 0.00 0.00 0.00 79 1014.3
20260507033004 63 91 0.9 3.5 0.00 0.00 0.00 78 1014.5
20260507032503 63 107 0.9 2.6 0.00 0.00 0.00 78 1014.6
20260507032004 63 50 0.9 5.2 0.00 0.00 0.00 76 1014.5
20260507031504 63 44 0.9 5.2 0.00 0.00 0.00 75 1014.5
20260507031004 63 68 0.9 2.6 0.00 0.00 0.00 74 1014.4
20260507030503 63 50 0.9 6.1 0.00 0.00 0.00 73 1014.5
20260507030003 64 39 0.9 6.1 0.00 0.00 0.00 72 1014.6
20260507025503 64 40 0.0 1.7 0.00 0.00 0.00 70 1014.7
20260507025004 64 45 0.9 5.2 0.00 0.00 0.00 68 1014.6
20260507024503 64 39 0.9 5.2 0.00 0.00 0.00 65 1014.5
20260507024003 64 37 0.9 5.2 0.00 0.00 0.00 64 1014.4
20260507023504 64 75 0.9 2.6 0.00 0.00 0.00 63 1014.1
20260507023004 64 88 0.9 2.6 0.00 0.00 0.00 63 1014.3
20260507022503 64 92 0.9 1.7 0.00 0.00 0.00 64 1014.3
20260507022003 64 75 0.9 5.2 0.00 0.00 0.00 63 1014.0
20260507021504 64 63 0.9 5.2 0.00 0.00 0.00 62 1014.0
20260507021004 64 73 0.9 3.5 0.00 0.00 0.00 60 1013.9
20260507020503 64 91 0.9 1.7 0.00 0.00 0.00 61 1014.0
20260507020004 64 88 0.9 5.2 0.00 0.00 0.00 64 1014.0
20260507015713 64 85 0.9 5.2 0.00 0.00 0.00 63 1014.1